| time (UTC) | temp C | wind direction | speed KPH | gust KPH | rain 1hr cm | rain 24hr cm | rain mn cm | humidity % | barometer mb |
| 20260505024900 | 6 | 4.8 | 0.0 | 0.00 | 0.00 | 0.00 | 81 | 1015.0 | |
| 20260505023359 | 6 | 4.8 | 0.0 | 0.00 | 0.00 | 0.00 | 81 | 1015.0 | |
| 20260505021859 | 6 | 4.8 | 0.0 | 0.00 | 0.00 | 0.00 | 81 | 1015.0 | |
| 20260505020359 | 6 | 4.8 | 0.0 | 0.00 | 0.00 | 0.00 | 81 | 1015.0 | |
| 20260505014853 | 6 | 4.8 | 0.0 | 0.00 | 0.00 | 0.00 | 81 | 1015.0 | |
| 20260505013400 | 6 | 4.8 | 0.0 | 0.00 | 0.00 | 0.00 | 81 | 1015.0 | |
| 20260505011853 | 6 | 4.8 | 0.0 | 0.00 | 0.00 | 0.00 | 81 | 1015.0 | |
| 20260505010400 | 6 | 4.8 | 0.0 | 0.00 | 0.00 | 0.00 | 81 | 1015.0 | |
| 20260505004856 | 6 | 4.8 | 0.0 | 0.00 | 0.00 | 0.00 | 81 | 1015.0 | |
| 20260505003359 | 7 | 4.8 | 0.0 | 0.00 | 0.00 | 0.00 | 76 | 1015.0 | |
| 20260505001857 | 7 | 4.8 | 0.0 | 0.00 | 0.00 | 0.00 | 76 | 1015.0 | |
| 20260505000400 | 7 | 4.8 | 0.0 | 0.00 | 0.00 | 0.00 | 76 | 1015.0 | |
| 20260504234857 | 7 | 4.8 | 0.0 | 0.00 | 0.00 | 0.00 | 76 | 1016.0 | |
| 20260504233356 | 7 | 4.8 | 0.0 | 0.00 | 0.00 | 0.00 | 76 | 1016.0 | |
| 20260504231857 | 7 | 4.8 | 0.0 | 0.00 | 0.00 | 0.00 | 76 | 1016.0 | |
| 20260504230357 | 7 | 4.8 | 0.0 | 0.00 | 0.00 | 0.00 | 76 | 1016.0 | |
| 20260504224853 | -17 | 0.0 | 0.0 | 0.00 | 0.00 | 0.00 | |||
| 20260504223356 | -17 | 0.0 | 0.0 | 0.00 | 0.00 | 0.00 | |||
| 20260504221919 | -17 | 0.0 | 0.0 | 0.00 | 0.00 | 0.00 | |||
| 20260504220356 | -17 | 0.0 | 0.0 | 0.00 | 0.00 | 0.00 | |||
| 20260504214856 | 7 | 150 | 11.3 | 0.0 | 0.00 | 0.00 | 0.00 | 76 | 1016.0 |
| 20260504213415 | 7 | 150 | 11.3 | 0.0 | 0.00 | 0.00 | 0.00 | 76 | 1016.0 |
| 20260504211859 | 7 | 150 | 11.3 | 0.0 | 0.00 | 0.00 | 0.00 | 76 | 1016.0 |
| 20260504210359 | 7 | 150 | 11.3 | 0.0 | 0.00 | 0.00 | 0.00 | 76 | 1016.0 |
| 20260504204856 | 8 | 150 | 11.3 | 0.0 | 0.00 | 0.00 | 0.00 | 71 | 1016.0 |
| 20260504203401 | 8 | 150 | 11.3 | 0.0 | 0.00 | 0.00 | 0.00 | 71 | 1016.0 |
| 20260504201856 | 8 | 150 | 11.3 | 0.0 | 0.00 | 0.00 | 0.00 | 71 | 1016.0 |
| 20260504200400 | 8 | 150 | 11.3 | 0.0 | 0.00 | 0.00 | 0.00 | 71 | 1016.0 |
| 20260504194900 | 8 | 150 | 11.3 | 0.0 | 0.00 | 0.00 | 0.00 | 76 | 1016.0 |
| 20260504193400 | 8 | 150 | 11.3 | 0.0 | 0.00 | 0.00 | 0.00 | 76 | 1016.0 |
| 20260504191859 | 8 | 150 | 11.3 | 0.0 | 0.00 | 0.00 | 0.00 | 76 | 1016.0 |
| 20260504190400 | 8 | 150 | 11.3 | 0.0 | 0.00 | 0.00 | 0.00 | 76 | 1016.0 |
| 20260504184857 | -17 | 0.0 | 0.0 | 0.00 | 0.00 | 0.00 | |||
| 20260504183410 | -17 | 0.0 | 0.0 | 0.00 | 0.00 | 0.00 | |||
| 20260504181900 | -17 | 0.0 | 0.0 | 0.00 | 0.00 | 0.00 | |||
| 20260504180400 | -17 | 0.0 | 0.0 | 0.00 | 0.00 | 0.00 | |||
| 20260504174900 | 15 | 150 | 3.2 | 0.0 | 0.00 | 0.00 | 0.00 | 55 | 1015.0 |
| 20260504173400 | 15 | 150 | 3.2 | 0.0 | 0.00 | 0.00 | 0.00 | 55 | 1015.0 |
| 20260504171859 | 15 | 150 | 3.2 | 0.0 | 0.00 | 0.00 | 0.00 | 55 | 1015.0 |
| 20260504170359 | 15 | 150 | 3.2 | 0.0 | 0.00 | 0.00 | 0.00 | 55 | 1015.0 |
| 20260504160400 | 13 | 120 | 11.3 | 0.0 | 0.00 | 0.00 | 0.00 | 67 | 1015.0 |
| 20260504150359 | 17 | 30 | 11.3 | 0.0 | 0.00 | 0.00 | 0.00 | 46 | 1015.0 |
| 20260504140400 | 20 | 30 | 17.7 | 0.0 | 0.00 | 0.00 | 0.00 | 35 | 1015.0 |
| 20260504130359 | 18 | 30 | 17.7 | 0.0 | 0.00 | 0.00 | 0.00 | 40 | 1015.0 |
| 20260504110400 | 18 | 20 | 22.5 | 0.0 | 0.00 | 0.00 | 0.00 | 32 | 1016.0 |
| 20260504100359 | 17 | 350 | 17.7 | 0.0 | 0.00 | 0.00 | 0.00 | 45 | 1016.0 |
| 20260504081859 | 15 | 350 | 14.5 | 0.0 | 0.00 | 0.00 | 0.00 | 51 | 1016.0 |
| 20260504080359 | 15 | 350 | 14.5 | 0.0 | 0.00 | 0.00 | 0.00 | 51 | 1016.0 |
| 20260504070401 | -17 | 0.0 | 0.0 | 0.00 | 0.00 | 0.00 | |||
| 20260504050409 | 5 | 330 | 22.5 | 0.0 | 0.00 | 0.00 | 0.00 | 81 | 1016.0 |
| 20260504044900 | 2 | 330 | 16.1 | 0.0 | 0.00 | 0.00 | 0.00 | 87 | 1016.0 |
| 20260504043359 | 2 | 330 | 16.1 | 0.0 | 0.00 | 0.00 | 0.00 | 87 | 1016.0 |
| 20260504041900 | 2 | 330 | 16.1 | 0.0 | 0.00 | 0.00 | 0.00 | 87 | 1016.0 |
| 20260504040359 | 2 | 330 | 16.1 | 0.0 | 0.00 | 0.00 | 0.00 | 87 | 1016.0 |
| 20260504034900 | 2 | 330 | 14.5 | 0.0 | 0.00 | 0.00 | 0.00 | 81 | 1016.0 |
| 20260504033359 | 2 | 330 | 14.5 | 0.0 | 0.00 | 0.00 | 0.00 | 81 | 1016.0 |
| 20260504031856 | 2 | 330 | 14.5 | 0.0 | 0.00 | 0.00 | 0.00 | 81 | 1016.0 |
| 20260504030524 | -17 | 0.0 | 0.0 | 0.00 | 0.00 | 0.00 |